[[{"header":{"parameterUnit":"m.s-1","parameterCategory":1,"la1":30.2991,"la2":30.254,"lo1":-89.0895,"lo2":-89.0444,"dy":0.0017,"dx":0.0017,"nx":28,"ny":28,"refTime":"2024-05-05T03:00:00:Z","depth":0,"parameterNumber":2,"parameterNumberName":"U-component_of_WINDS"},"data":[0,0,0,0,0,0,0,0,0,0,0,0,0,0,0,0,0,0,0,0,0,0,0,0,0,0,0,0,0,0,0,0,0,0,0,0,0,0,0,0,0,0,0,0,0,0,0,0,0,0,0,0,0,0,0,0,0,0,-2.0393,-2.0393,0,-2.0364,-2.0364,-2.0363,-2.0305,-2.0304,-2.0302,-2.0301,-2.0272,-2.0272,-2.0272,0,0,0,0,0,0,0,0,0,0,0,0,0,-2.04,-2.04,-2.0393,-2.0393,-2.0393,-2.0364,-2.0364,-2.0363,-2.0305,-2.0303,-2.0302,-2.0301,-2.0272,-2.0272,-2.0272,0,0,0,0,0,0,0,0,0,0,0,0,0,-2.0386,-2.04,-2.0393,-2.036,-2.0357,-2.0364,-2.0364,-2.0363,-2.0305,-2.0303,-2.0302,-2.03,-2.0272,-2.0272,-2.0272,-2.031,0,0,-2.0274,-2.0274,0,0,0,0,0,0,0,0,-2.0387,-2.0386,-2.0365,-2.0362,-2.0359,-2.0336,-2.0355,-2.0346,-2.0306,-2.0325,-2.0301,-2.0299,-2.0295,-2.0293,-2.0292,-2.0309,-2.0308,-2.0274,-2.0274,-2.0274,-2.0275,0,0,0,0,0,0,0,-2.0388,-2.0387,-2.0382,-2.0365,-2.0361,-2.0347,-2.0343,-2.0353,-2.032,-2.0323,-2.0319,-2.0316,-2.0293,-2.0291,-2.029,-2.0307,-2.0274,-2.0274,-2.0275,-2.0275,-2.0355,-2.0357,0,0,0,0,0,0,-2.0394,-2.0388,-2.0383,-2.0381,-2.0369,-2.0348,-2.0344,-2.0345,-2.032,-2.0314,-2.0317,-2.0313,-2.0291,-2.029,-2.0289,-2.0332,-2.0274,-2.0275,-2.0275,-2.0353,-2.0356,-2.0358,0,0,0,0,0,0,-2.0394,-2.0394,-2.0384,-2.0383,-2.0381,-2.035,-2.0352,-2.0346,-2.0344,-2.0315,-2.0309,-2.0322,-2.029,-2.0289,-2.0306,-2.033,-2.0275,-2.0275,-2.0351,-2.0354,-2.0357,-2.0418,0,0,0,0,0,0,-2.0395,-2.0394,-2.0408,-2.0384,-2.0381,-2.0401,-2.0353,-2.0346,-2.0345,-2.0339,-2.0318,-2.0313,-2.0288,-2.0305,-2.0306,-2.033,-2.0276,-2.0349,-2.0352,-2.0356,-2.0413,-2.0422,-2.043,0,0,0,0,0,-2.0395,-2.0426,-2.0409,-2.0409,-2.0398,-2.0402,-2.04,-2.0371,-2.0347,-2.0361,-2.0343,-2.0314,-2.0328,-2.0308,-2.0308,-2.0332,-2.0347,-2.0351,-2.0355,-2.041,-2.042,-2.043,0,0,0,0,0,0,-2.0454,-2.0422,-2.0403,-2.0427,-2.0418,-2.0392,-2.0408,-2.0384,-2.0381,-2.0376,-2.034,-2.0336,-2.0358,-2.0347,-2.0325,-2.0368,-2.0333,-2.0337,-2.0374,-2.0384,-2.0392,-2.0394,-2.0276,0,0,0,0,0,-2.047,-2.0475,-2.0448,-2.0472,-2.0469,-2.044,-2.044,-2.0419,-2.0408,-2.0403,-2.0386,-2.0377,-2.0379,-2.0381,-2.0381,-2.0412,-2.0407,-2.0429,-2.0437,-2.0444,-2.0448,-2.0464,-2.0473,-2.0371,-2.0371,-2.0371,0,0,-2.0502,-2.0486,-2.0492,-2.0484,-2.0474,-2.0481,-2.0436,-2.0446,-2.0451,-2.0405,-2.042,-2.0407,-2.0394,-2.0419,-2.0428,-2.041,-2.0475,-2.0449,-2.0455,-2.0455,-2.0469,-2.0479,-2.0487,-2.0374,-2.0374,-2.0373,0,0,-2.0565,-2.0554,-2.0572,-2.0564,-2.0549,-2.053,-2.0535,-2.0513,-2.0503,-2.0518,-2.0483,-2.0489,-2.0494,-2.0486,-2.0483,-2.0545,-2.0518,-2.0546,-2.0588,-2.0604,-2.0612,-2.0619,-2.0641,-2.0649,-2.055,-2.055,-2.055,0,-2.0607,-2.0616,-2.0585,-2.0597,-2.0595,-2.0554,-2.0573,-2.0566,-2.0553,-2.0552,-2.0532,-2.0538,-2.0526,-2.0548,-2.0563,-2.0562,-2.0566,-2.0547,-2.0614,-2.062,-2.0626,-2.0647,-2.0655,-2.0554,-2.0553,-2.0553,-2.0553,0,-2.0669,-2.0676,-2.0694,-2.0682,-2.0681,-2.0697,-2.0669,-2.0672,-2.0652,-2.0635,-2.0651,-2.0636,-2.0632,-2.0636,-2.0616,-2.0656,-2.0645,-2.062,-2.0584,-2.064,-2.0659,-2.0666,-2.0559,-2.0557,-2.0556,-2.0556,0,0,-2.0767,-2.0739,-2.0745,-2.074,-2.0722,-2.0727,-2.0741,-2.0738,-2.0742,-2.0735,-2.0746,-2.0751,-2.0728,-2.0724,-2.0703,-2.0717,-2.0767,-2.069,-2.0689,-2.0705,-2.081,-2.0829,-2.0838,-2.075,-2.0751,-2.0752,-2.0811,0,-2.0825,-2.0847,-2.082,-2.0848,-2.0854,-2.0816,-2.0829,-2.0819,-2.0805,-2.0808,-2.0792,-2.0796,-2.0766,-2.0763,-2.0775,-2.0758,-2.0788,-2.0754,-2.076,-2.076,-2.0763,-2.0848,-2.0867,-2.0923,-2.0818,-2.0819,-2.082,0,-2.0896,-2.0892,-2.092,-2.0901,-2.0903,-2.0914,-2.091,-2.0914,-2.0903,-2.0891,-2.0888,-2.0862,-2.0876,-2.0842,-2.086,-2.0837,-2.0838,-2.0831,-2.0832,-2.0831,-2.0793,-2.0848,-2.094,-2.0948,-2.0832,-2.0831,-2.083,0,-2.0964,-2.0966,-2.0983,-2.098,-2.0958,-2.0967,-2.0958,-2.0945,-2.0946,-2.0942,-2.0942,-2.094,-2.0939,-2.0938,-2.0914,-2.0891,-2.0935,-2.0899,-2.0925,-2.0926,-2.0935,-2.0935,-2.1028,-2.0937,-2.0937,-2.0937,-2.0937,0,-2.1031,-2.105,-2.1013,-2.1024,-2.1044,-2.1014,-2.1035,-2.1023,-2.1012,-2.102,-2.0987,-2.0996,-2.0963,-2.0968,-2.0949,-2.0966,-2.0966,-2.0957,-2.0952,-2.096,-2.0961,-2.0959,-2.0954,-2.0939,-2.0939,-2.0938,-2.0938,0,-2.111,-2.1086,-2.1103,-2.1081,-2.1076,-2.1092,-2.1073,-2.1082,-2.1066,-2.1077,-2.1077,-2.1052,-2.1056,-2.1032,-2.1031,-2.1019,-2.1046,-2.1034,-2.1049,-2.1045,-2.1073,-2.1071,-2.1168,-2.1179,-2.1082,-2.1083,-2.1084,0,-2.1154,-2.1168,-2.1148,-2.115,-2.1143,-2.1149,-2.1149,-2.112,-2.1121,-2.111,-2.1121,-2.1123,-2.1122,-2.1131,-2.1113,-2.1113,-2.1101,-2.1135,-2.11,-2.1108,-2.11,-2.11,-2.1101,-2.1142,-2.1143,-2.1144,-2.1145,0,-2.1235,-2.1223,-2.1224,-2.1221,-2.1222,-2.1219,-2.1214,-2.1218,-2.1187,-2.119,-2.1194,-2.1194,-2.1194,-2.1197,-2.1193,-2.1185,-2.116,-2.1156,-2.1162,-2.1169,-2.1178,-2.1173,-2.1068,-2.1153,-2.1152,-2.1152,-2.1151,-2.1151,-2.1298,-2.1308,-2.1295,-2.1298,-2.1291,-2.1287,-2.1295,-2.1279,-2.1282,-2.1279,-2.1263,-2.127,-2.126,-2.1252,-2.1246,-2.1252,-2.1236,-2.1245,-2.1247,-2.1249,-2.1254,-2.1178,-2.1251,-2.1251,-2.1251,-2.1251,-2.125,0,-2.1376,-2.1367,-2.1369,-2.1363,-2.1365,-2.1342,-2.1335,-2.1338,-2.1345,-2.1337,-2.1338,-2.1343,-2.1345,-2.1327,-2.1327,-2.1335,-2.1324,-2.1336,-2.1335,-2.1333,-2.1269,-2.1263,-2.1345,-2.1345,-2.1345,-2.1345,-2.1345,-2.1345,-2.1418,-2.1434,-2.1421,-2.1434,-2.1424,-2.143,-2.1428,-2.1425,-2.1418,-2.1425,-2.1427,-2.1415,-2.1404,-2.1403,-2.1404,-2.1399,-2.14,-2.1417,-2.1408,-2.1347,-2.1338,-2.1329,-2.1324,-2.1417,-2.1417,-2.1471,-2.1472,-2.1472]},{"header":{"parameterUnit":"m.s-1","parameterCategory":1,"la1":30.2991,"la2":30.254,"lo1":-89.0895,"lo2":-89.0444,"dy":0.0017,"dx":0.0017,"nx":28,"ny":28,"refTime":"2024-05-05T03:00:00:Z","depth":0,"parameterNumber":3,"parameterNumberName":"V-component_of_WINDS"},"data":[0,0,0,0,0,0,0,0,0,0,0,0,0,0,0,0,0,0,0,0,0,0,0,0,0,0,0,0,0,0,0,0,0,0,0,0,0,0,0,0,0,0,0,0,0,0,0,0,0,0,0,0,0,0,0,0,0,0,4.608,4.6081,0,4.6114,4.6114,4.6114,4.6164,4.6165,4.6165,4.6166,4.6195,4.6195,4.6195,0,0,0,0,0,0,0,0,0,0,0,0,0,4.6056,4.6056,4.608,4.6081,4.6081,4.6114,4.6114,4.6114,4.6163,4.6165,4.6166,4.6167,4.6195,4.6195,4.6195,0,0,0,0,0,0,0,0,0,0,0,0,0,4.6076,4.6056,4.608,4.611,4.6113,4.6113,4.6114,4.6115,4.6163,4.6165,4.6166,4.6167,4.6195,4.6195,4.6195,4.6168,0,0,4.6195,4.6195,0,0,0,0,0,0,0,0,4.6074,4.6076,4.6105,4.6108,4.6111,4.6136,4.6116,4.6132,4.6163,4.6144,4.6166,4.6168,4.6174,4.6176,4.6179,4.617,4.6171,4.6195,4.6195,4.6195,4.6195,0,0,0,0,0,0,0,4.6073,4.6075,4.6093,4.6105,4.6109,4.612,4.6124,4.6119,4.6151,4.6146,4.6149,4.6153,4.6176,4.6179,4.618,4.6171,4.6195,4.6195,4.6195,4.6195,4.6144,4.6143,0,0,0,0,0,0,4.6068,4.6074,4.6092,4.6094,4.6096,4.612,4.6124,4.6126,4.6151,4.6156,4.6152,4.6155,4.6178,4.618,4.6181,4.6153,4.6195,4.6195,4.6195,4.6145,4.6144,4.6142,0,0,0,0,0,0,4.6067,4.6069,4.6091,4.6085,4.6089,4.6119,4.6121,4.6126,4.613,4.6156,4.6161,4.6149,4.618,4.6181,4.6172,4.6155,4.6195,4.6195,4.6147,4.6145,4.6143,4.6096,0,0,0,0,0,0,4.6066,4.6068,4.6059,4.6085,4.6089,4.6082,4.612,4.6126,4.613,4.6135,4.6155,4.616,4.6181,4.6172,4.6172,4.6155,4.6195,4.6148,4.6146,4.6143,4.6099,4.6092,4.6087,0,0,0,0,0,4.6065,4.6043,4.6058,4.606,4.6078,4.6081,4.6083,4.6109,4.6128,4.6119,4.6136,4.6159,4.6157,4.6171,4.6171,4.6154,4.615,4.6147,4.6144,4.6102,4.6094,4.6087,0,0,0,0,0,0,4.6012,4.6047,4.6064,4.605,4.6062,4.6089,4.6078,4.61,4.6106,4.611,4.614,4.6145,4.6132,4.6142,4.6157,4.6131,4.6157,4.6154,4.6125,4.6117,4.6111,4.6109,4.6195,0,0,0,0,0,4.5999,4.6,4.6029,4.6014,4.6019,4.6048,4.605,4.6069,4.6083,4.6088,4.6104,4.6115,4.6117,4.6118,4.6121,4.6101,4.6106,4.6089,4.6083,4.6078,4.6075,4.6067,4.606,4.6132,4.6132,4.6133,0,0,4.5972,4.5991,4.5989,4.6004,4.6016,4.6015,4.6052,4.6049,4.6048,4.6086,4.608,4.6092,4.6107,4.6092,4.6087,4.61,4.6057,4.6074,4.607,4.607,4.6063,4.6057,4.6051,4.613,4.6131,4.6131,0,0,4.5922,4.5936,4.5926,4.5938,4.5956,4.5975,4.5973,4.5997,4.6008,4.6002,4.6031,4.603,4.6033,4.6043,4.6048,4.6004,4.6025,4.6004,4.5972,4.5964,4.5958,4.5953,4.5939,4.5933,4.6001,4.6001,4.6,0,4.5885,4.5886,4.5917,4.5913,4.5919,4.5956,4.5946,4.5955,4.5973,4.5976,4.5992,4.5997,4.6009,4.5999,4.5989,4.5991,4.5989,4.6002,4.5957,4.5952,4.5948,4.5935,4.5929,4.5998,4.5998,4.5998,4.5999,0,4.5841,4.5841,4.5831,4.585,4.5854,4.5847,4.5876,4.5877,4.5896,4.5914,4.5908,4.5924,4.5932,4.5931,4.5949,4.5923,4.5932,4.5951,4.5978,4.5938,4.5926,4.5921,4.5994,4.5995,4.5996,4.5997,0,0,4.5757,4.5796,4.5791,4.5801,4.5825,4.5826,4.582,4.5831,4.5831,4.5842,4.5839,4.5841,4.5861,4.5867,4.5886,4.5878,4.5845,4.5899,4.59,4.589,4.5819,4.5805,4.5799,4.5859,4.5858,4.5858,4.5819,0,4.5713,4.5708,4.5736,4.5723,4.5725,4.5761,4.5756,4.577,4.5787,4.5789,4.5807,4.5809,4.5834,4.5838,4.5832,4.585,4.5831,4.5853,4.5856,4.5856,4.5852,4.5792,4.5777,4.5739,4.5814,4.5813,4.5813,0,4.566,4.5672,4.5659,4.5687,4.5688,4.5684,4.5696,4.5699,4.5715,4.5728,4.5736,4.5759,4.5755,4.5781,4.5777,4.5791,4.5794,4.5803,4.5802,4.5804,4.5832,4.5793,4.5728,4.5722,4.5805,4.5806,4.5806,0,4.5602,4.5614,4.5609,4.5616,4.5647,4.5644,4.5656,4.5674,4.5679,4.569,4.5693,4.5702,4.5707,4.5713,4.5738,4.5754,4.5731,4.5759,4.5742,4.5741,4.5735,4.5735,4.567,4.5735,4.5736,4.5736,4.5736,0,4.555,4.5542,4.5584,4.5581,4.5573,4.5605,4.5596,4.5611,4.5628,4.5628,4.5658,4.5658,4.5691,4.5693,4.5712,4.5707,4.5708,4.5718,4.5724,4.5716,4.5715,4.5719,4.5722,4.5734,4.5735,4.5735,4.5735,0,4.5485,4.5513,4.551,4.554,4.5548,4.554,4.5566,4.5564,4.5583,4.5583,4.5585,4.5614,4.562,4.5645,4.5655,4.5669,4.5656,4.5666,4.5651,4.5655,4.5637,4.5639,4.5573,4.5567,4.5635,4.5634,4.5633,0,4.545,4.5445,4.5476,4.5479,4.5491,4.5495,4.5501,4.5533,4.5538,4.5558,4.5553,4.5561,4.557,4.5576,4.5598,4.5606,4.5617,4.5594,4.5619,4.5612,4.5619,4.5619,4.5619,4.5588,4.5587,4.5587,4.5586,0,4.5386,4.5401,4.5409,4.5423,4.543,4.5442,4.5455,4.5455,4.5491,4.5494,4.5501,4.5508,4.552,4.5528,4.554,4.5552,4.5575,4.5578,4.5575,4.5568,4.556,4.5565,4.5638,4.558,4.558,4.5581,4.5581,4.5581,4.5336,4.5334,4.5356,4.5365,4.5379,4.5391,4.5392,4.5412,4.5419,4.5433,4.545,4.5455,4.5473,4.5493,4.5503,4.5507,4.552,4.5514,4.5513,4.5512,4.5509,4.5559,4.5509,4.5509,4.5509,4.551,4.551,0,4.5275,4.5292,4.53,4.5319,4.5326,4.5348,4.5365,4.5369,4.5373,4.5389,4.5398,4.5406,4.5414,4.5437,4.5448,4.5447,4.5457,4.5448,4.5449,4.5452,4.5496,4.5499,4.544,4.544,4.544,4.544,4.544,4.544,4.5245,4.5243,4.526,4.5266,4.5282,4.5289,4.5296,4.5308,4.5321,4.533,4.5338,4.5354,4.5372,4.5385,4.5394,4.54,4.5403,4.5391,4.5401,4.5442,4.5448,4.5455,4.5457,4.5391,4.5391,4.5356,4.5356,4.5356]}]]